Satellite-Ground Cal/Val Site Overpasses Predictions

Prediction of Satellite NPP Overpassing Cal/Val Site: Antarctic Dome C

Ground Cal/Val Site Location: Latitude: -75.10, Longitude: 123.35; Satellite-Ground Site NADIR distance within 100 km.

Table of predicted overpasses for the next 14.0 days since TLE Epoch: 8/30/2013
Interval Starting Time Ending Time Minimum Distance Time Minimum Distance (km)
1 08/30/2013 14:55:23 08/30/2013 14:55:52 08/30/2013 14:55:37 25.44
2 08/31/2013 14:36:41 08/31/2013 14:36:57 08/31/2013 14:36:49 81.73
3 09/01/2013 07:38:15 09/01/2013 07:38:42 09/01/2013 07:38:29 34.03
4 09/02/2013 07:19:30 09/02/2013 07:19:49 09/02/2013 07:19:40 75.96
5 09/04/2013 15:01:48 09/04/2013 15:02:10 09/04/2013 15:01:59 62.53
6 09/05/2013 14:42:58 09/05/2013 14:43:24 09/05/2013 14:43:11 46.63
7 09/06/2013 07:44:40 09/06/2013 07:45:01 09/06/2013 07:44:51 69.39
8 09/07/2013 07:25:48 09/07/2013 07:26:15 09/07/2013 07:26:02 38.39
9 09/10/2013 14:49:18 09/10/2013 14:49:47 09/10/2013 14:49:33 11.02


NCC Satellite Cal/Val Overpasses Prediction Service
